TimeCDT,TemperatureF,Dew PointF,Humidity,Sea Level PressureIn,VisibilityMPH,Wind Direction,Wind SpeedMPH,Gust SpeedMPH,PrecipitationIn,Events,Conditions,WindDirDegrees,DateUTC
12:56 AM,71.1,66.9,87,29.98,9.0,Calm,Calm,-,N/A,,Clear,0,2013-09-07 05:56:00
1:56 AM,70.0,66.0,87,29.97,8.0,Calm,Calm,-,N/A,,Clear,0,2013-09-07 06:56:00
2:56 AM,70.0,66.0,87,29.97,8.0,Calm,Calm,-,N/A,,Clear,0,2013-09-07 07:56:00
3:56 AM,69.1,64.9,87,29.96,8.0,North,4.6,-,0.00,,Clear,10,2013-09-07 08:56:00
4:56 AM,70.0,64.9,84,29.97,9.0,Calm,Calm,-,N/A,,Clear,0,2013-09-07 09:56:00
5:56 AM,70.0,64.0,81,29.98,10.0,NNE,3.5,-,N/A,,Clear,30,2013-09-07 10:56:00
6:56 AM,69.1,64.9,87,29.99,6.0,Calm,Calm,-,0.00,,Clear,0,2013-09-07 11:56:00
7:56 AM,73.9,66.9,79,30.00,9.0,North,3.5,-,N/A,,Clear,350,2013-09-07 12:56:00
8:56 AM,80.1,69.1,69,30.01,10.0,Calm,Calm,-,N/A,,Clear,0,2013-09-07 13:56:00
9:56 AM,84.9,70.0,61,30.02,9.0,Calm,Calm,-,0.00,Rain,Light Rain,0,2013-09-07 14:56:00
10:56 AM,88.0,69.1,53,30.06,10.0,Variable,3.5,-,0.00,,Clear,0,2013-09-07 15:56:00
11:56 AM,89.1,66.9,48,30.01,10.0,Calm,Calm,-,0.00,,Clear,0,2013-09-07 16:56:00
12:56 PM,90.0,69.1,50,29.99,10.0,NNW,5.8,-,N/A,,Partly Cloudy,340,2013-09-07 17:56:00
1:56 PM,91.9,68.0,45,29.98,10.0,NW,5.8,-,N/A,,Mostly Cloudy,310,2013-09-07 18:56:00
2:10 PM,89.6,68.0,49,30.02,10.0,Variable,6.9,-,N/A,Thunderstorm,Thunderstorm,0,2013-09-07 19:10:00
2:30 PM,84.2,68.0,58,30.02,10.0,SE,11.5,-,N/A,,Overcast,140,2013-09-07 19:30:00
2:56 PM,86.0,69.1,57,29.96,10.0,SSE,6.9,-,0.00,Rain,Light Rain,160,2013-09-07 19:56:00
3:56 PM,87.1,69.1,55,29.95,10.0,SSE,11.5,-,0.00,,Clear,150,2013-09-07 20:56:00
4:56 PM,88.0,68.0,51,29.95,10.0,South,6.9,-,N/A,,Partly Cloudy,180,2013-09-07 21:56:00
5:26 PM,86.0,66.2,51,29.99,10.0,South,6.9,-,N/A,Thunderstorm,Thunderstorm,190,2013-09-07 22:26:00
5:42 PM,86.0,66.2,51,29.99,10.0,SE,6.9,-,N/A,,Mostly Cloudy,140,2013-09-07 22:42:00
5:56 PM,84.0,69.1,61,29.94,10.0,South,9.2,-,0.00,Rain,Light Rain,180,2013-09-07 22:56:00
6:56 PM,82.0,71.1,69,29.95,10.0,SW,6.9,-,0.00,,Partly Cloudy,220,2013-09-07 23:56:00
7:56 PM,79.0,71.1,77,29.95,10.0,Calm,Calm,-,N/A,,Clear,0,2013-09-08 00:56:00
8:56 PM,75.9,71.1,85,29.97,10.0,Calm,Calm,-,N/A,,Clear,0,2013-09-08 01:56:00
9:56 PM,75.9,71.1,85,29.97,10.0,Calm,Calm,-,N/A,,Clear,0,2013-09-08 02:56:00
10:56 PM,73.0,70.0,90,29.97,8.0,Calm,Calm,-,0.00,,Clear,0,2013-09-08 03:56:00
11:56 PM,73.0,69.1,87,29.97,6.0,Calm,Calm,-,N/A,,Clear,0,2013-09-08 04:56:00